Flag for Russia Weather past 2 weeks in Ulyanovsk, Russia

Now
45 °F

Scattered clouds.


Feels Like: 38 °F
Forecast: 36 / 51 °F
Wind: 13 mph from Northwest

Location: Ulyanovsk

Current Time: Apr 26, 2015 at 9:36:43 AM

Latest Report: Apr 26, 2015 at 9:00 AM


Visibility: 5 mi

Pressure: 29.86 "Hg

Humidity: 66%

Dew point: 34 °F

Location of UlyanovskLocation

Historic Weather in Ulyanovsk — Graph

°F

Ulyanovsk temperature yesterday

Maximum temperature yesterday: 50 °F (at 11:00 AM)
Minimum temperature yesterday: 36 °F (at 5:00 AM)
Average temperature yesterday: 42 °F

Past Weeks' High & Low Weather Summary

 TemperatureHumidityPressure
High61 °F (Apr 15, 12:00 PM)100% (Apr 12, 1:00 AM)30.21 "Hg (Apr 12, 1:00 AM)
Low27 °F (Apr 19, 5:00 AM)31% (Apr 13, 1:00 PM)29.06 "Hg (Apr 20, 12:00 PM)
Average42 °F76%29.66 "Hg
* Reported Apr 11 8:00 AM — Apr 26 8:00 AM, Ulyanovsk, Weather by CustomWeather, © 2015

Note: Actual official high and low records may vary slightly from our data, if they occured in-between our weather recording intervals... More about our weather records

Advertising

Ulyanovsk weather history for previous 24 hours

 ConditionsComfort  
Time TempWeatherWind HumidityBarometerVisibility
8:00 AM
Sun, Apr 26
41 °FPassing clouds.15 mph76%29.86 "Hg5 mi
7:00 AM39 °FPassing clouds.15 mph81%29.83 "Hg5 mi
6:00 AM37 °FScattered clouds.13 mph93%29.83 "Hg5 mi
5:00 AM36 °FPassing clouds.13 mph93%29.80 "Hg5 mi
4:00 AM36 °FPassing clouds.13 mph93%29.74 "Hg5 mi
3:00 AM36 °FMostly cloudy.15 mph100%29.74 "HgN/A
2:00 AM37 °FMostly cloudy.13 mph93%29.71 "HgN/A
1:00 AM37 °FMostly cloudy.13 mph93%29.71 "HgN/A
12:00 AM39 °FMostly cloudy.15 mph93%29.68 "HgN/A
11:00 PM
Sat, Apr 25
39 °FSprinkles. Mostly cloudy.10 mph100%29.65 "Hg3 mi
10:00 PM39 °FMostly cloudy.6 mph87%29.65 "HgN/A
9:00 PM39 °FMostly cloudy.3 mph87%29.62 "HgN/A
8:00 PM41 °FSprinkles. Mostly cloudy.No wind81%29.59 "Hg3 mi
7:00 PM41 °FBroken clouds.3 mph81%29.59 "Hg5 mi
6:00 PM43 °FBroken clouds.3 mph81%29.59 "Hg5 mi
5:00 PM45 °FBroken clouds.8 mph76%29.59 "Hg5 mi
4:00 PM46 °FBroken clouds.8 mph76%29.59 "Hg5 mi
3:00 PM45 °FPartly sunny.8 mph81%29.59 "Hg5 mi
2:00 PM46 °FMostly cloudy.10 mph82%29.62 "Hg5 mi
1:00 PM45 °FSprinkles. Mostly cloudy.13 mph81%29.62 "Hg5 mi
12:00 PM48 °FSprinkles. Mostly cloudy.13 mph66%29.62 "Hg5 mi
11:00 AM50 °FMore clouds than sun.8 mph58%29.65 "Hg5 mi
10:00 AM48 °FMore clouds than sun.13 mph62%29.68 "Hg5 mi
9:00 AM46 °FOvercast.8 mph66%29.68 "Hg5 mi
Weather by CustomWeather, © 2015

See weather overviewHow to use our weather pages